Theta_e
289 289 289 291 290 290 290 290 290 289 291 291 289 290 292 292 288 286 292 294 293 296 300 315 316 317 317 319 319 321 325 330 333 333 334 335 336 337 339 339 339 338 338 339 339 340 341 342 342 343 345 346 347 348 349 352 354 355 357 356 356 355 355 354 354 355 355 354 354 352 352 351 350 350 350 351 352 352 353 353 354 353 353 351 350 351 353
288 289 289 291 289 289 289 290 291 291 291 290 291 291 292 291 290 293 294 294 296 299 308 316 317 318 318 317 323 322 319 321 324 326 329 331 333 335 336 336 337 338 340 341 341 341 342 343 343 343 344 345 346 347 348 350 353 356 357 356 356 356 355 355 356 356 356 355 354 353 352 351 350 350 350 351 352 352 353 353 353 353 353 352 350 350 351
286 288 291 290 290 289 288 289 290 291 292 291 292 291 292 295 293 295 296 295 296 304 313 316 318 316 318 317 319 320 318 319 320 320 321 324 326 328 331 334 336 337 339 340 342 343 344 343 343 343 345 346 347 348 348 349 351 356 357 356 356 356 356 356 356 356 356 355 355 353 352 351 351 350 350 351 351 352 353 354 354 353 353 351 351 350 350
283 288 288 289 290 290 288 287 289 290 290 289 290 290 292 291 290 293 293 293 300 307 313 317 316 313 314 315 316 318 318 319 320 320 319 320 322 324 327 330 332 334 337 338 339 341 342 343 346 345 344 346 347 348 349 349 350 355 358 357 357 357 357 357 357 356 356 355 354 354 353 351 351 350 350 350 351 351 353 353 354 354 352 351 351 350 350
281 287 289 288 288 286 283 285 287 290 291 292 293 294 298 301 301 296 292 298 306 309 314 311 313 311 312 313 315 317 318 318 317 319 320 322 323 323 325 327 330 332 335 335 338 340 340 341 343 345 347 348 347 348 349 350 351 352 356 358 357 357 358 358 358 357 356 355 354 354 353 352 351 351 350 350 350 351 352 353 354 353 352 351 350 351 350
281 287 288 288 283 276 278 291 293 292 291 292 290 294 304 307 308 305 308 311 312 311 310 310 311 310 311 314 317 317 318 317 316 317 318 320 322 323 324 325 327 329 332 334 336 337 339 343 343 346 346 345 349 349 348 349 350 350 350 354 358 358 358 358 358 358 357 355 354 354 353 353 352 351 350 350 350 351 353 354 353 352 352 351 350 350 350
279 285 286 282 275 278 290 294 295 295 294 294 294 302 305 306 306 307 308 307 308 309 310 311 314 314 313 314 316 314 317 318 317 316 317 318 320 321 323 324 326 329 330 331 334 336 337 342 345 343 345 346 345 347 348 348 351 351 351 351 355 358 358 359 359 358 357 356 355 354 353 353 352 351 350 350 351 351 352 353 353 352 352 350 350 350 351
284 281 279 271 276 288 293 293 295 297 297 301 301 301 303 305 306 305 305 307 308 309 309 311 313 315 314 314 316 315 316 317 319 318 315 317 319 319 321 322 325 326 327 331 333 336 341 342 344 347 347 348 347 345 346 348 348 349 349 350 353 357 358 359 358 358 357 356 355 354 353 353 352 351 351 350 350 352 352 353 354 354 353 352 350 350 350
277 280 279 280 288 288 289 290 293 299 295 296 296 291 297 304 307 306 305 306 307 307 309 310 311 313 315 311 310 317 315 315 316 319 319 318 318 319 321 322 323 326 327 329 332 338 339 340 342 343 347 350 347 346 345 345 348 349 349 349 351 356 358 359 359 359 358 357 355 354 354 352 352 351 351 351 351 353 352 352 353 353 353 352 352 350 350
285 281 278 278 278 277 283 293 300 303 301 302 303 297 295 305 305 307 307 304 304 305 307 308 309 312 310 305 307 312 316 316 315 316 319 319 319 320 320 322 323 325 327 329 332 336 336 337 340 341 343 345 346 344 345 347 347 347 349 350 352 354 357 359 360 359 359 358 356 355 354 352 352 352 353 353 352 353 352 352 352 353 354 353 353 352 351
284 282 278 275 273 280 292 294 298 299 301 303 303 295 291 303 304 306 306 305 305 305 305 306 308 306 301 302 307 310 312 315 316 315 316 317 319 319 320 320 322 324 326 328 331 333 336 336 338 340 342 343 345 347 347 348 351 351 350 350 351 352 356 359 360 360 360 358 357 356 354 354 353 353 353 353 353 353 353 353 353 354 355 354 353 352 352
284 282 279 278 282 279 291 296 298 299 301 303 295 282 286 301 304 305 306 305 305 304 305 306 305 302 298 300 305 314 312 314 317 316 315 315 316 318 319 321 324 325 328 327 328 330 334 336 338 340 341 343 346 349 351 352 352 351 352 354 355 356 356 358 360 360 360 359 358 357 355 355 355 354 355 354 353 353 353 353 353 353 354 354 353 353 352
286 286 283 284 285 293 297 297 299 299 303 299 284 280 294 301 302 305 306 305 306 305 305 305 302 305 306 307 310 316 315 312 313 317 319 317 317 317 319 321 326 324 326 327 328 330 333 335 337 339 341 343 345 347 350 351 352 354 355 355 355 356 357 358 360 360 360 360 358 358 357 356 356 356 355 354 354 353 352 353 353 352 353 354 353 353 353
282 283 282 282 286 293 297 299 299 301 297 285 283 296 301 302 303 306 307 305 306 306 305 305 305 307 309 311 311 312 314 314 313 315 318 317 317 318 321 323 324 324 325 327 329 330 332 333 336 337 339 340 343 347 350 352 355 359 359 356 355 355 356 358 359 360 360 360 360 359 359 358 356 355 356 356 355 354 353 353 352 351 352 352 353 353 353
285 283 283 282 278 292 299 298 296 300 289 291 297 298 301 306 306 306 306 306 307 306 304 306 307 307 308 309 309 310 312 314 313 314 316 316 315 316 318 319 322 324 323 326 327 328 330 332 334 336 339 341 344 346 348 353 357 357 357 358 358 355 354 357 359 359 360 360 359 360 359 358 356 355 355 355 355 355 353 352 352 351 351 351 352 352 352
279 280 279 281 290 292 300 297 290 294 298 300 301 301 299 303 304 305 305 305 306 307 306 305 306 307 307 308 308 309 311 313 314 315 316 316 317 316 319 320 321 324 322 325 326 327 328 330 333 335 336 335 338 340 342 347 347 348 349 352 356 356 354 355 358 359 360 361 360 360 360 359 357 355 355 355 355 355 354 352 351 351 351 350 351 351 351
285 282 285 291 293 296 298 298 298 299 301 304 304 303 302 301 302 305 304 304 305 306 306 306 306 306 307 307 308 308 310 313 314 314 314 314 316 317 318 319 322 323 322 323 325 325 326 327 328 330 330 330 333 335 339 342 342 343 345 349 354 356 354 354 356 359 360 360 360 360 360 359 357 356 355 355 354 355 354 353 352 351 351 350 349 350 351
293 294 295 296 296 296 296 298 300 300 303 304 304 302 300 302 303 304 303 304 305 306 307 306 306 306 307 308 308 308 309 311 314 315 314 314 316 318 320 319 321 322 322 323 322 322 324 325 325 327 327 328 329 332 336 338 340 341 344 348 352 354 355 354 356 358 359 360 360 361 361 360 359 358 356 356 355 355 354 353 353 351 350 350 349 349 350
287 283 297 295 294 295 296 296 299 300 300 300 301 300 300 301 302 303 304 304 305 306 306 306 306 306 308 308 308 309 308 310 312 313 313 313 314 317 318 320 321 320 322 321 320 321 321 322 323 324 324 326 328 331 333 336 338 340 343 347 350 353 354 353 355 357 358 359 360 361 361 361 361 360 358 357 356 354 355 354 353 352 351 349 349 349 349
288 288 292 293 294 295 296 296 296 296 297 298 299 300 301 301 303 303 303 304 305 307 306 307 306 307 308 308 308 308 308 309 311 312 312 312 314 317 320 320 321 320 321 318 318 319 320 320 322 323 323 324 326 329 332 334 336 338 342 346 347 351 354 354 354 357 358 357 358 360 361 361 360 360 359 359 357 355 355 355 353 352 351 350 349 349 349
289 292 293 294 294 294 296 298 298 298 298 297 298 299 300 301 301 302 303 305 305 306 306 308 307 307 308 308 308 308 309 310 312 312 312 312 314 317 319 319 320 319 321 318 318 319 319 320 321 321 322 323 325 327 329 332 334 335 341 344 347 350 355 354 354 355 357 358 359 360 360 361 361 362 360 359 358 359 360 359 358 355 354 353 352 352 351
284 284 287 291 287 287 292 295 296 297 298 298 298 300 300 301 301 302 302 303 305 306 307 307 307 307 308 308 308 309 310 312 314 313 312 312 314 317 319 318 318 319 322 319 318 319 318 320 321 321 321 322 324 326 327 330 332 334 340 343 346 349 353 354 354 355 356 358 359 359 360 360 360 353 337 324 348 361 360 347 339 335 334 352 355 354 352
283 289 292 292 293 293 294 296 297 298 299 300 299 300 300 301 302 303 302 302 302 303 305 308 307 307 308 309 310 310 311 312 313 314 314 314 314 315 318 316 316 318 320 320 318 318 318 320 320 320 320 321 322 324 325 328 330 334 339 341 345 348 346 348 350 355 356 357 358 359 360 360 359 355 347 328 302 302 321 337 331 321 319 323 328 334 350
291 293 294 295 293 292 295 298 299 299 300 300 301 301 302 302 302 303 303 303 302 303 305 307 308 308 309 310 310 309 310 311 312 312 314 315 315 316 317 316 317 319 320 318 317 318 319 320 319 320 320 321 321 322 324 326 329 333 338 337 340 344 342 341 341 343 350 356 357 358 359 360 359 355 349 343 334 310 299 310 322 318 315 312 312 317 324
290 294 296 296 295 297 298 299 300 300 301 303 301 301 302 303 303 305 304 304 305 305 305 306 308 309 309 310 310 310 309 311 313 314 318 321 317 316 316 317 318 319 319 317 318 318 319 319 319 319 319 320 321 321 322 324 327 331 335 335 335 339 340 339 338 339 342 345 353 356 357 356 355 354 351 348 345 341 325 300 297 300 306 312 314 314 311
296 297 298 299 299 299 299 299 299 300 300 301 302 303 304 307 306 307 306 306 306 306 306 307 307 309 310 309 310 310 310 310 313 317 314 312 314 317 316 316 318 321 320 318 317 317 318 319 318 318 318 319 319 321 322 324 325 329 332 333 332 335 339 337 339 340 340 342 343 344 346 352 353 352 351 351 350 346 339 338 336 320 305 299 299 310 313
298 299 298 297 296 296 298 296 295 299 300 302 302 302 304 304 307 306 306 306 307 308 308 308 309 310 310 311 312 312 310 312 314 313 313 314 315 315 315 317 319 321 319 317 316 317 318 317 317 317 317 318 319 321 322 323 323 327 328 330 331 335 343 346 338 339 341 340 337 336 336 336 340 343 345 346 345 343 344 343 344 344 342 330 306 301 319
299 300 300 295 292 293 294 297 299 300 301 302 302 303 303 304 303 303 303 303 304 305 306 307 308 308 309 310 310 310 311 310 310 310 314 314 314 315 315 316 318 319 317 316 314 316 316 315 315 315 315 316 318 320 321 322 322 325 326 327 329 328 328 333 340 342 341 339 338 335 335 337 340 342 342 342 340 340 338 342 344 343 338 337 330 308 301
299 300 301 300 299 298 299 299 299 298 299 301 304 303 302 300 300 301 301 302 303 304 304 306 309 311 310 310 310 310 310 310 310 310 313 313 314 314 315 315 318 318 314 314 313 314 313 313 313 313 314 315 317 319 320 321 320 324 324 324 325 326 325 326 328 336 343 341 339 338 337 340 341 342 341 340 339 339 338 339 339 340 339 329 324 326 320
299 300 300 300 300 300 298 296 295 297 298 299 301 301 301 300 299 299 301 302 304 303 304 306 308 309 310 310 311 311 311 311 312 313 313 313 311 313 313 314 317 313 312 311 311 312 312 312 313 313 314 315 317 318 319 319 320 324 323 322 323 323 323 322 324 330 340 342 341 336 338 341 342 342 340 339 338 338 337 338 338 337 335 331 331 334 335
299 299 300 300 300 299 297 296 295 297 298 298 300 300 299 300 299 300 300 302 303 304 305 306 308 310 310 312 313 313 314 314 313 312 311 311 311 311 312 313 312 310 308 309 310 311 311 312 313 313 315 316 316 317 318 318 319 322 321 321 321 320 318 318 320 324 328 338 341 339 340 341 342 341 339 339 338 337 337 337 336 335 334 334 337 336 334
298 298 299 299 298 297 297 296 295 296 297 299 299 299 299 299 298 299 300 301 303 304 305 306 307 309 310 311 314 314 314 314 313 311 310 308 308 309 311 312 312 312 309 309 310 311 311 311 311 314 315 315 316 316 317 317 318 318 319 321 320 320 319 318 319 320 324 328 336 340 340 340 340 340 339 338 338 338 337 338 337 336 336 335 336 334 329
296 295 295 296 297 296 295 294 295 296 297 298 298 300 301 301 301 301 302 303 303 304 305 307 309 308 310 311 312 314 314 313 312 310 308 307 307 307 308 310 311 311 309 308 309 310 310 310 312 314 314 314 315 315 316 317 318 317 317 318 318 319 321 318 317 319 321 322 321 325 338 340 339 339 339 339 339 338 338 338 337 336 336 335 331 330 329
297 296 296 297 296 294 292 294 295 297 298 300 300 300 300 301 302 302 302 303 303 303 304 307 309 309 309 309 310 312 313 312 309 307 307 306 306 306 306 307 307 308 307 307 308 309 310 311 313 313 313 313 314 314 315 316 316 316 316 317 317 317 317 317 317 318 318 317 318 320 321 332 338 338 338 339 339 340 339 338 335 333 330 325 321 318 309
299 298 298 298 298 297 297 297 296 297 298 298 299 300 300 301 302 302 304 303 302 303 305 308 308 308 307 307 307 308 310 309 307 306 306 306 306 306 306 306 306 306 306 306 306 307 309 311 313 312 312 312 313 312 315 316 315 314 315 315 316 317 316 316 316 315 315 314 315 315 318 320 327 335 336 332 333 333 332 331 329 326 323 320 319 319 316
301 300 300 299 299 300 300 298 298 299 299 299 300 301 301 301 302 301 301 302 304 305 305 306 306 305 305 304 304 305 306 308 307 306 305 305 305 306 305 305 305 305 304 303 305 307 309 312 314 314 311 311 311 311 314 315 314 313 314 314 315 315 315 315 314 314 314 314 313 313 314 318 321 324 325 325 326 326 326 325 324 323 322 320 319 318 317
301 300 299 299 299 299 298 298 298 298 299 299 300 301 302 301 302 302 303 303 304 304 305 305 305 303 303 304 304 305 305 306 307 307 306 305 305 304 304 304 304 304 303 302 303 307 308 311 312 312 310 310 310 310 313 316 314 311 312 311 312 312 312 311 312 312 311 312 313 312 313 313 313 316 319 320 320 321 322 322 321 321 320 320 319 317 316
301 301 300 299 299 299 299 299 300 300 300 301 301 302 302 302 302 302 302 303 304 304 305 304 305 305 304 304 303 303 303 305 305 305 305 304 304 303 302 302 302 303 302 302 305 306 308 311 311 309 308 308 309 309 312 314 314 311 309 309 310 310 311 309 310 310 310 310 312 311 310 309 309 310 311 311 312 312 313 314 314 313 313 313 313 313 313
300 301 301 301 300 299 299 299 301 299 299 299 300 301 302 303 303 302 302 302 303 305 304 303 304 304 303 302 301 302 302 303 304 304 305 305 304 302 301 302 303 304 304 306 306 305 309 310 308 307 307 307 308 308 311 312 313 309 309 308 308 309 309 308 308 308 308 309 309 309 309 309 308 308 308 308 309 309 309 309 309 309 309 309 309 309 309
299 300 299 300 299 299 299 298 298 299 299 299 299 299 301 302 301 302 302 302 303 305 303 303 302 302 302 302 302 301 301 302 302 302 303 303 304 302 302 302 304 305 306 308 306 306 309 310 308 305 305 306 308 307 309 310 310 309 308 307 308 308 307 308 306 306 306 306 306 307 306 307 307 307 307 307 306 307 307 307 306 306 305 305 304 304 305
300 300 300 300 300 300 298 298 297 298 299 300 300 300 301 301 301 301 301 302 302 303 303 303 301 301 301 301 301 302 303 303 302 301 302 302 301 301 300 299 303 305 306 305 306 306 307 308 308 305 304 306 307 308 307 308 306 306 306 307 306 306 305 305 305 304 304 304 304 303 303 304 304 305 305 305 306 305 305 304 304 304 304 303 303 303 303
300 300 300 299 299 299 299 299 298 297 298 299 302 302 301 302 302 301 302 302 302 302 301 302 303 301 301 301 301 301 301 302 303 302 302 301 300 300 299 300 304 305 307 307 305 305 304 304 306 307 305 305 306 308 307 306 304 304 304 305 305 305 305 305 304 304 304 304 303 303 303 303 302 302 303 303 302 303 303 303 303 303 303 303 303 302 302
300 300 299 298 299 300 300 299 298 298 299 299 300 300 301 302 302 301 302 302 302 301 301 300 301 301 301 299 298 298 299 300 300 302 302 302 302 302 301 301 303 305 306 305 304 302 303 304 304 305 307 306 305 307 305 303 302 303 303 303 304 304 304 304 303 303 303 302 302 302 302 302 301 301 301 301 301 301 302 301 301 301 301 301 301 301 300
302 301 300 300 300 300 300 300 299 299 298 298 299 300 300 301 302 302 301 301 301 302 301 300 300 300 300 299 298 297 297 298 298 299 299 300 300 302 304 304 304 305 306 304 303 303 302 304 304 305 307 307 305 305 303 302 301 301 302 302 303 303 303 302 302 302 301 302 301 301 301 302 301 301 300 300 300 300 301 301 300 301 301 301 300 300 300
301 300 300 300 301 301 298 298 298 297 298 300 300 300 300 299 300 302 301 300 301 302 303 301 301 302 301 301 299 299 300 300 300 299 297 297 297 298 302 304 304 304 305 304 302 302 302 303 304 306 305 305 305 304 301 301 301 301 301 301 301 302 301 301 301 301 301 301 301 301 302 301 301 301 300 301 301 300 300 300 300 300 300 300 300 300 299
301 302 303 306 300 299 299 300 300 300 300 298 298 301 301 299 299 300 301 300 301 301 302 302 301 301 301 302 302 302 301 301 301 302 301 300 298 299 302 303 303 303 303 303 302 301 302 305 304 304 304 304 304 302 301 301 301 300 300 300 300 301 300 300 300 301 301 301 301 300 300 300 300 300 300 300 300 301 301 302 301 301 301 301 300 300 300
301 301 301 300 301 302 303 303 302 300 298 298 296 297 300 300 301 300 301 301 300 301 302 302 302 302 302 302 301 301 301 300 300 302 302 302 303 302 302 302 301 301 302 302 301 301 302 302 303 303 303 303 302 300 300 300 300 300 300 300 300 300 300 300 300 300 300 300 301 301 302 301 299 299 300 300 299 299 300 300 299 299 300 301 300 301 301
302 301 301 301 300 301 301 301 299 296 296 297 297 299 300 301 300 300 301 300 300 301 302 302 303 303 302 302 302 303 302 301 298 298 302 303 302 302 302 300 300 301 301 301 301 302 302 302 302 302 302 302 300 299 299 299 300 300 299 300 299 299 299 299 299 299 299 300 299 298 298 298 298 299 299 299 298 299 299 299 299 299 299 299 299 299 299
301 302 302 302 301 300 299 299 301 300 297 299 301 300 301 301 301 299 299 299 299 300 300 300 300 301 302 304 304 302 304 304 301 299 302 303 302 302 301 302 301 301 300 298 298 299 301 301 301 301 302 301 298 298 298 298 299 299 299 299 299 299 300 299 299 299 299 299 299 299 299 298 298 298 298 298 299 299 300 299 299 299 299 299 300 300 300
302 302 301 300 299 299 299 299 298 297 298 302 299 300 300 299 298 297 300 299 300 302 298 298 298 299 299 299 300 302 303 304 305 304 304 302 301 300 301 301 301 300 300 298 298 297 300 301 301 301 300 298 298 299 298 298 298 298 298 299 299 298 299 300 300 300 300 300 299 300 299 299 299 300 300 300 299 299 299 299 299 300 300 300 300 299 299
301 301 301 302 301 300 299 297 298 301 300 300 299 301 302 300 299 301 299 300 299 300 298 299 299 299 299 298 300 300 301 302 303 304 301 301 302 302 301 300 300 300 299 298 298 296 296 296 297 298 298 298 298 298 298 298 297 298 298 298 298 298 298 299 299 298 299 299 299 299 299 299 299 298 298 298 298 298 298 298 298 298 297 297 297 296 296
302 301 300 300 300 299 299 300 301 302 301 301 299 299 299 299 299 299 299 302 299 298 297 297 296 298 299 300 303 300 301 301 302 300 303 302 301 300 302 300 299 299 297 297 296 297 297 298 299 299 299 297 297 297 299 299 298 297 297 298 298 297 298 298 298 298 298 298 298 298 298 298 297 297 297 297 297 297 297 297 297 297 297 296 296 295 294
Wind_Speed
4 4 4 6 7 8 10 12 9 10 9 9 9 6 6 5 3 8 9 9 10 12 11 8 7 10 11 12 17 18 17 17 20 21 20 19 18 18 17 15 14 12 8 5 2 1 4 9 14 16 15 15 13 12 12 13 14 15 15 15 15 16 15 16 16 15 14 13 13 13 14 13 14 14 14 14 13 13 13 13 12 13 13 13 12 12 11
6 6 7 7 10 9 9 8 9 8 8 10 11 12 8 7 7 8 12 9 8 7 9 8 8 6 8 9 11 16 20 21 20 20 19 19 19 17 15 14 14 15 15 12 6 5 4 4 3 5 6 9 12 13 13 13 13 13 13 15 15 15 15 15 13 13 13 13 12 13 13 14 14 14 13 13 13 13 14 14 13 13 12 12 13 13 12
4 6 6 7 9 10 11 9 10 12 9 9 11 11 10 8 7 6 7 4 4 5 9 6 6 6 7 11 15 13 16 20 21 20 19 18 17 16 15 15 15 14 14 14 14 13 10 5 3 7 8 8 8 9 9 9 9 10 12 12 14 14 15 13 13 13 13 13 12 13 13 13 13 14 14 13 13 13 13 13 14 13 12 13 13 12 13
4 2 6 9 11 13 11 7 7 10 10 8 7 8 5 7 9 9 11 5 2 5 8 7 7 11 12 11 12 12 13 17 18 18 17 17 15 15 15 14 15 15 14 14 12 12 11 11 10 3 3 6 9 12 12 12 11 11 13 14 15 15 15 13 14 14 13 13 13 14 13 14 14 13 13 13 13 13 13 13 13 12 13 13 12 12 12
3 2 5 9 9 10 11 4 3 3 7 5 9 11 8 6 4 1 3 5 5 3 3 5 7 9 8 10 11 11 13 13 14 14 14 14 13 13 14 15 15 14 13 12 10 10 9 9 8 8 10 4 6 8 9 10 11 13 16 18 17 17 16 16 15 15 14 14 14 14 14 14 13 13 13 14 14 13 14 13 11 13 14 13 12 12 12
1 4 7 6 7 5 7 0 9 6 10 14 13 9 4 6 6 2 3 2 4 4 5 5 4 5 5 5 7 11 9 10 11 11 11 11 12 13 13 14 14 13 12 12 11 9 9 9 8 7 5 8 10 3 7 7 9 9 9 10 14 15 16 16 16 15 15 15 15 15 14 13 13 13 14 15 14 13 12 12 13 13 13 14 13 12 13
2 2 5 7 4 10 3 3 6 7 9 12 12 3 8 7 9 9 6 7 8 8 7 4 1 4 4 5 10 12 12 9 8 8 9 10 12 13 14 15 14 14 14 14 15 13 11 11 10 9 7 7 9 11 6 9 11 12 9 8 9 13 15 15 15 15 15 15 15 15 14 14 13 14 14 14 14 13 12 13 13 13 14 14 13 13 13
1 3 1 0 9 3 9 12 9 8 5 4 12 3 8 10 9 8 7 7 9 9 9 10 6 2 8 7 11 12 12 11 10 11 10 11 11 11 10 10 11 12 13 11 13 15 10 9 10 8 7 6 6 9 17 11 5 6 8 10 9 9 12 14 15 15 15 15 15 14 14 14 15 15 14 14 15 13 12 12 12 11 12 12 13 13 12
1 3 5 9 8 15 14 6 3 5 2 5 5 3 3 2 7 9 9 9 9 10 10 11 11 9 6 3 7 11 12 12 10 9 9 11 11 10 10 10 9 9 9 11 11 10 11 9 8 11 11 8 5 7 11 15 8 5 4 7 9 10 13 14 15 15 15 15 15 15 14 15 16 15 15 14 13 12 13 13 12 13 13 13 12 13 13
4 3 5 4 2 6 3 2 6 6 5 3 3 2 3 2 9 11 9 9 11 13 13 13 14 8 4 8 7 9 11 9 11 9 7 8 8 10 11 10 8 7 7 10 10 9 12 11 9 10 10 9 7 4 9 14 10 7 8 10 10 9 10 13 14 14 15 15 15 15 15 16 16 15 14 12 14 12 13 13 13 13 12 12 12 12 13
1 2 4 3 5 5 3 5 7 11 7 5 5 2 3 3 9 10 10 10 10 11 13 14 12 8 5 3 5 7 9 10 10 10 9 9 10 9 10 10 13 12 8 8 9 10 9 11 12 12 13 13 9 7 8 12 10 7 7 9 10 11 10 10 12 14 15 15 15 15 16 16 15 15 15 14 12 12 13 12 13 11 11 11 12 12 13
3 3 4 7 3 4 2 6 9 11 11 7 1 5 2 5 10 10 9 7 9 10 10 10 7 7 6 8 8 7 8 7 8 11 12 11 11 9 9 8 9 9 11 9 9 9 9 10 11 12 12 11 9 8 9 9 8 7 7 7 7 9 11 12 12 13 14 15 16 16 17 15 14 14 13 12 13 14 13 12 11 11 11 11 13 12 12
5 6 7 5 6 2 4 7 9 11 10 3 4 7 1 7 10 9 7 7 7 9 8 8 6 5 4 7 9 5 8 9 9 9 9 8 9 10 11 10 10 9 9 10 10 9 8 9 10 10 10 11 11 10 9 9 9 8 8 7 7 7 7 10 12 14 14 15 17 16 16 15 15 13 13 14 13 13 13 12 12 11 12 12 12 12 12
5 5 5 8 6 1 4 4 9 6 4 4 5 1 4 7 9 10 6 6 4 5 7 6 6 8 10 9 9 7 8 7 6 6 8 10 9 7 7 9 10 9 9 9 10 10 10 10 9 8 9 10 11 10 10 9 9 10 9 8 7 8 7 9 11 13 14 14 15 15 15 13 12 13 12 12 12 13 12 12 14 13 12 11 11 12 11
0 0 4 4 7 1 5 7 8 2 1 2 2 4 4 4 6 8 8 5 5 3 6 8 7 9 11 10 10 8 8 7 8 8 9 9 10 11 11 11 11 10 8 9 10 11 11 11 10 10 10 10 11 11 12 12 12 13 13 12 10 9 9 9 10 13 14 15 13 12 12 13 14 14 12 12 13 12 12 12 13 13 13 11 11 11 11
2 3 4 5 1 1 2 3 3 3 3 5 4 2 6 4 3 5 7 6 5 5 5 6 8 10 10 10 10 10 8 8 7 8 9 10 10 10 9 9 10 11 9 8 9 9 9 10 11 11 12 12 12 12 12 12 13 13 13 13 12 11 10 10 11 12 13 15 15 13 14 14 14 13 13 12 12 11 12 12 11 12 11 11 11 12 13
3 5 6 4 2 2 2 2 4 6 8 3 2 2 4 6 5 4 6 9 8 7 7 6 6 9 10 9 9 9 10 8 7 8 10 10 12 11 11 11 11 10 11 11 10 10 9 11 11 11 11 12 13 13 12 12 12 13 13 13 13 12 11 10 11 11 12 12 14 14 13 14 13 13 13 12 11 11 11 11 12 12 12 11 12 12 11
4 8 12 12 7 3 7 5 5 6 4 3 1 2 5 4 5 5 7 8 10 10 8 8 6 6 8 9 9 9 10 9 7 6 8 9 9 11 11 11 12 11 10 9 10 11 11 12 12 10 11 12 14 13 14 13 12 12 12 12 13 13 11 10 10 11 12 13 13 14 14 13 14 13 14 13 12 11 11 12 12 13 12 12 12 11 11
3 5 0 1 2 6 5 9 7 3 3 3 4 5 4 6 6 7 7 8 9 10 9 9 10 9 8 8 8 7 8 9 7 6 7 8 8 8 9 11 11 10 10 10 11 12 13 12 11 12 13 12 12 13 14 14 13 13 13 12 12 13 11 11 10 10 12 11 11 12 13 12 12 12 12 12 12 12 12 13 13 13 13 12 12 12 13
4 8 6 6 4 6 8 6 2 6 9 10 9 7 7 8 7 7 8 7 9 7 9 10 10 10 8 7 7 7 7 8 6 6 6 8 8 7 6 7 9 8 8 10 10 11 11 11 11 11 12 12 13 13 13 14 14 14 13 11 11 13 14 10 9 10 11 15 15 11 12 13 12 11 11 12 12 13 14 13 13 12 12 12 13 13 12
6 8 11 8 9 10 5 2 4 6 7 10 12 12 11 10 10 8 7 5 6 7 9 10 11 11 10 8 7 8 7 7 6 5 5 6 7 7 7 7 8 8 6 8 8 9 10 9 10 11 12 12 13 15 15 14 14 13 12 13 11 12 12 9 9 9 10 11 11 12 12 12 12 13 14 14 14 13 14 13 14 14 13 12 12 12 11
5 5 6 1 5 8 5 6 7 8 8 9 12 12 11 10 9 8 8 8 6 7 7 8 9 11 10 9 6 8 8 8 7 6 4 4 5 7 6 6 7 8 8 8 8 9 9 10 10 11 12 12 13 14 14 13 13 13 12 12 11 10 11 8 7 8 9 9 11 11 12 12 11 7 1 1 8 13 12 15 17 18 14 13 12 11 11
6 6 4 2 5 8 11 10 7 8 9 9 11 12 12 11 10 10 10 9 7 6 7 7 9 10 10 10 8 8 8 8 7 6 5 4 4 5 6 8 9 10 8 9 8 10 10 11 11 11 11 12 13 14 14 14 13 12 11 10 9 8 8 9 6 4 7 9 10 10 11 11 11 11 9 2 10 7 2 8 15 17 17 18 17 16 13
5 4 5 4 3 6 8 9 11 10 9 9 10 11 11 11 11 11 11 9 10 9 8 9 8 9 10 10 9 9 8 7 7 6 5 5 4 4 4 6 7 9 9 9 9 10 9 9 10 12 10 10 13 14 14 14 13 13 11 10 12 8 5 5 8 5 1 5 8 11 10 12 13 12 12 9 1 8 9 3 1 8 11 11 12 14 17
5 4 4 4 4 7 8 9 9 9 9 9 10 11 11 12 11 11 12 11 9 10 9 9 9 9 10 10 9 9 7 5 5 6 6 4 2 2 4 6 8 9 8 8 8 8 8 9 9 9 10 11 12 13 14 15 14 13 12 10 12 11 6 5 6 8 6 1 7 8 11 11 10 10 10 10 11 7 3 9 9 8 6 4 5 7 9
6 4 4 3 3 5 6 7 10 8 8 9 11 11 13 13 14 13 11 10 10 9 9 9 9 9 9 9 8 7 6 5 6 6 4 3 2 1 3 4 7 7 6 7 7 9 9 10 10 9 10 12 13 13 13 14 14 12 12 11 10 10 8 5 7 7 7 5 4 5 6 5 9 11 11 12 13 12 10 6 4 6 8 8 5 2 6
6 5 3 3 6 7 5 5 7 8 11 10 9 10 12 12 14 11 10 9 8 7 7 8 8 9 8 8 8 6 6 6 5 6 4 3 1 0 2 3 6 6 6 7 7 9 12 11 10 9 10 11 13 13 13 13 14 12 12 12 10 13 19 10 7 9 7 2 1 3 4 5 10 3 7 9 9 10 12 12 12 11 10 6 4 9 9
8 7 7 8 6 5 4 4 6 8 9 10 10 10 10 11 11 11 11 10 10 9 9 9 9 9 8 7 6 5 4 4 6 5 4 2 1 1 2 3 5 4 6 7 8 8 10 10 10 9 10 11 12 13 13 13 13 12 11 12 10 9 9 12 11 9 5 5 6 7 8 9 10 8 5 6 7 8 8 9 11 11 8 6 2 4 10
7 7 7 9 8 5 4 4 5 6 8 9 9 8 10 12 11 10 9 10 10 10 10 10 9 9 8 6 5 5 4 3 4 3 4 2 1 2 3 5 4 4 6 8 9 9 9 9 10 11 10 11 11 12 13 13 12 11 11 11 10 8 10 10 11 12 6 5 7 10 11 8 6 6 7 7 6 6 6 8 9 9 7 4 3 2 2
6 6 6 6 6 4 4 4 5 5 7 8 8 8 9 9 10 9 10 11 10 10 10 11 11 7 4 4 3 3 3 3 2 3 3 3 3 3 5 6 4 4 5 8 10 10 10 10 9 10 10 11 10 10 12 12 12 11 11 12 9 9 9 10 10 12 8 6 8 15 13 11 11 11 9 8 9 9 10 9 9 7 6 5 5 6 8
6 6 7 6 5 4 4 5 4 5 6 7 7 8 10 9 11 10 11 11 10 10 11 10 10 7 2 2 2 1 1 0 3 4 4 4 4 4 5 6 6 7 7 8 9 9 9 9 8 9 10 10 9 9 10 11 11 11 10 11 10 13 15 17 12 9 9 6 6 8 10 10 10 10 11 11 10 9 9 8 7 7 6 7 8 9 7
4 5 6 6 5 5 5 4 4 5 6 6 7 7 9 10 11 12 12 12 11 11 12 10 7 2 1 1 0 0 2 4 3 5 4 5 5 5 5 5 5 6 5 6 7 8 9 9 10 10 10 10 10 9 9 10 10 10 10 11 11 10 12 16 10 11 9 8 6 7 10 10 10 10 9 10 11 11 10 10 10 10 9 10 10 5 2
5 3 4 4 4 4 4 4 4 5 5 5 6 7 8 8 8 10 10 11 11 12 10 7 4 1 1 2 2 1 4 5 6 6 5 5 5 4 4 3 4 4 3 4 5 7 8 9 9 10 10 10 11 11 9 9 9 9 10 9 10 10 11 11 13 10 8 8 8 9 7 9 8 8 9 11 11 11 11 11 10 10 10 8 4 4 4
8 8 8 7 7 6 4 5 4 4 5 5 5 6 7 8 9 9 10 12 12 11 10 9 4 5 5 5 5 3 5 6 5 5 6 5 4 4 4 4 3 3 3 3 6 7 8 8 9 9 10 10 10 10 10 9 8 8 9 10 10 10 10 10 11 10 8 8 7 9 9 7 7 9 11 11 10 9 10 9 8 9 7 5 5 4 5
4 4 5 5 5 5 4 4 4 4 4 5 6 5 6 8 8 9 11 10 12 13 11 9 7 7 8 8 8 7 6 7 7 7 6 6 5 5 4 5 4 3 4 6 8 8 9 9 9 10 9 10 10 10 10 10 8 8 9 9 10 9 9 10 11 10 9 8 8 9 9 9 5 7 8 6 9 10 9 9 10 9 9 9 8 8 9
5 5 4 4 5 5 5 4 4 4 3 4 4 5 6 7 8 9 10 10 9 9 10 10 9 8 10 10 9 8 6 5 6 6 6 7 6 6 7 7 6 5 6 6 7 7 9 8 15 17 9 9 9 9 10 11 8 8 8 10 9 9 9 9 10 10 10 8 9 9 9 10 11 3 6 4 8 9 9 11 11 10 11 10 10 10 11
6 8 6 5 5 5 5 4 4 3 3 2 2 4 5 6 7 7 8 8 9 9 9 7 8 11 10 9 8 8 8 7 6 5 5 6 7 8 8 8 9 9 9 8 8 8 8 8 16 17 10 7 8 8 10 16 8 7 7 8 9 9 9 10 10 10 10 9 9 9 11 10 9 10 4 6 6 4 8 9 10 10 11 11 10 10 9
7 8 7 6 5 5 6 5 4 3 2 1 1 2 3 4 5 7 7 8 9 9 8 8 8 7 8 9 10 11 10 9 8 7 8 9 8 8 8 8 8 7 8 7 8 7 7 10 15 10 7 7 7 7 10 16 14 8 7 8 8 9 10 10 9 10 10 10 9 8 10 11 10 8 6 9 10 10 9 10 10 9 8 8 8 8 9
5 4 4 4 5 4 3 2 3 3 3 3 2 2 3 3 4 5 6 7 8 8 7 7 6 8 9 9 10 9 10 9 9 9 7 7 6 8 8 7 6 6 5 7 8 7 8 10 7 7 7 7 8 7 10 15 14 8 8 8 9 9 10 10 9 9 9 10 9 8 9 11 11 10 9 8 10 11 12 14 12 10 10 9 10 10 9
4 4 5 5 4 3 2 2 3 4 3 2 2 0 2 3 4 5 5 6 7 7 7 6 7 8 9 9 8 8 8 9 9 9 8 7 6 6 6 7 8 7 9 13 9 8 12 15 9 7 7 7 7 7 8 13 12 8 7 8 8 9 9 9 9 9 9 9 11 12 10 10 8 10 10 8 10 11 10 12 13 11 11 11 11 11 11
5 5 5 5 4 3 3 3 3 2 2 2 1 1 2 2 3 4 5 6 6 6 7 7 7 8 8 8 8 7 6 7 8 9 7 6 7 7 7 7 7 6 8 8 9 10 13 11 8 7 7 8 7 10 8 12 9 7 8 8 8 9 9 8 8 8 9 9 9 10 11 10 8 8 8 9 9 9 13 13 12 11 10 11 11 11 12
5 6 5 5 4 3 4 4 3 3 2 1 2 2 1 1 2 3 3 3 4 6 7 8 11 9 7 7 8 9 9 8 7 7 9 9 9 7 7 7 7 6 12 11 11 11 9 9 9 8 7 7 8 16 14 9 8 8 7 8 8 8 9 9 8 8 8 8 8 8 9 9 9 8 8 8 9 10 9 11 11 11 10 9 10 10 11
7 7 6 5 4 4 5 5 4 3 2 1 2 3 1 0 1 2 3 3 4 5 7 7 9 10 10 10 10 11 11 11 11 8 6 7 8 7 7 7 7 7 13 8 8 7 8 7 7 7 13 11 10 15 13 8 8 8 8 8 8 8 8 9 8 8 8 9 9 8 8 9 9 10 10 10 9 9 10 11 11 9 9 9 9 9 10
7 6 6 5 5 4 4 4 4 2 1 0 1 3 3 1 0 1 2 3 3 4 5 5 6 7 7 7 8 8 8 8 8 8 7 6 6 7 7 6 6 9 15 8 7 8 8 7 7 13 18 18 17 14 8 7 8 8 8 8 8 8 8 8 9 9 8 8 8 8 8 10 8 9 10 10 10 10 10 10 9 9 9 9 9 10 11
7 6 6 6 5 5 4 4 4 4 2 0 2 4 3 2 1 1 2 3 4 4 4 5 5 5 5 5 6 5 5 5 6 6 7 8 7 7 7 8 8 6 10 12 8 8 7 9 14 20 17 18 16 14 8 8 8 8 8 8 8 8 8 9 9 9 9 8 8 9 9 9 9 10 10 11 11 10 10 10 10 9 9 10 10 11 11
6 6 6 8 7 5 5 5 4 3 3 3 3 3 3 3 3 2 2 2 3 3 3 4 4 4 4 4 3 3 3 4 4 5 6 6 7 5 6 8 7 9 13 12 8 8 8 18 20 18 19 18 15 9 8 7 8 8 9 9 9 9 8 8 8 8 8 9 9 9 9 9 9 9 9 8 9 10 11 12 11 10 10 10 11 11 11
7 6 6 6 4 4 4 3 3 4 3 2 1 1 3 4 3 2 2 2 2 3 3 4 4 3 3 3 4 3 3 4 4 4 4 4 5 6 8 11 11 13 10 8 8 8 9 11 15 19 18 17 15 9 8 8 7 7 8 9 9 8 8 8 8 8 9 9 10 11 12 11 10 9 10 10 11 10 9 9 10 10 10 11 11 11 11
8 7 6 6 6 4 4 3 3 3 3 3 3 1 3 5 4 2 1 2 3 3 4 3 3 3 3 4 4 3 3 2 4 4 3 3 4 4 4 5 9 13 12 10 12 13 19 18 19 19 18 15 9 8 9 9 9 9 9 9 9 9 8 8 8 8 8 9 9 9 9 9 9 10 10 10 10 10 10 10 10 10 10 10 10 10 11
7 7 5 4 5 4 4 2 1 1 1 1 3 1 4 7 5 3 2 2 3 3 4 3 3 3 3 3 3 4 3 3 2 3 2 3 3 4 5 7 12 13 9 7 7 7 14 17 16 17 17 13 8 8 9 9 9 9 9 9 8 8 8 9 9 8 9 9 9 9 9 9 9 9 10 10 10 10 10 10 10 10 9 10 10 10 10
7 7 5 5 4 4 3 2 1 2 1 1 3 3 5 6 5 3 3 3 3 3 3 3 3 3 2 2 3 3 4 4 3 1 1 3 3 4 5 5 7 11 11 7 6 7 11 16 15 15 11 8 8 8 8 9 9 9 8 9 9 9 9 10 9 10 8 8 8 8 9 8 9 10 10 9 9 9 9 9 10 12 16 11 9 9 9
6 6 4 4 3 4 3 4 3 2 0 3 5 4 4 5 5 4 3 4 3 3 2 2 3 4 4 3 2 2 2 2 3 5 5 5 4 6 8 6 7 7 7 7 6 6 6 6 7 8 8 8 8 8 8 8 8 9 9 8 9 8 8 9 8 9 9 8 8 8 8 8 8 9 9 9 9 9 9 10 9 9 10 9 9 9 9
7 5 5 4 5 3 2 2 2 1 1 5 6 5 6 6 6 5 5 4 3 3 2 2 2 2 2 4 4 3 3 5 4 5 6 6 6 4 5 7 5 6 6 5 6 6 6 7 9 11 10 8 7 7 9 12 9 8 9 9 8 8 9 9 9 9 8 9 9 9 9 8 8 9 9 9 9 9 9 8 9 9 9 9 9 9 9
Wind_Direction
286 285 302 323 318 303 297 299 302 312 316 314 311 288 295 317 266 259 296 328 317 311 329 354 16 31 24 13 347 341 5 27 39 49 50 48 51 49 44 42 41 33 38 44 26 304 237 210 197 193 193 196 195 194 190 186 182 185 182 185 189 193 195 199 201 200 201 204 207 207 207 207 209 211 211 211 210 209 208 210 211 211 209 207 207 207 208
327 328 328 330 316 311 312 308 311 294 298 295 292 289 283 277 266 263 282 295 304 311 337 347 360 44 61 49 13 346 7 22 27 33 39 42 39 36 37 35 42 42 36 24 31 85 97 149 202 221 214 204 198 194 192 187 185 182 179 185 189 192 198 200 199 198 199 200 203 205 206 208 209 210 212 211 210 210 210 210 211 210 210 208 207 206 206
313 321 324 320 321 324 315 319 310 303 292 286 288 297 290 279 282 277 272 322 336 319 330 340 346 350 46 34 40 9 1 15 21 23 25 30 31 25 25 28 27 30 33 34 32 30 21 16 109 153 167 178 192 202 197 193 186 179 180 184 189 194 198 197 196 196 198 201 201 204 206 208 208 209 211 211 212 212 211 210 211 209 209 209 208 207 205
306 333 340 338 338 326 311 311 302 281 275 275 283 285 301 287 281 280 290 312 316 291 326 329 32 18 29 34 37 36 16 12 21 19 12 15 20 21 20 21 22 19 23 31 31 27 17 14 355 351 162 175 186 194 187 190 189 176 182 187 192 195 196 193 194 195 197 199 202 205 205 207 207 208 209 211 213 212 211 211 210 209 210 210 209 208 206
264 331 352 342 332 341 320 293 207 304 318 308 313 315 327 344 340 354 296 219 223 252 296 346 29 36 17 22 28 32 32 21 22 21 8 1 7 15 14 16 15 17 14 9 21 27 11 353 7 20 345 320 192 185 195 196 183 182 184 187 189 192 193 193 193 193 193 196 200 203 205 206 206 206 207 211 213 212 212 211 207 209 211 209 210 208 206
257 3 353 348 358 319 246 150 336 344 338 325 316 304 6 358 359 279 244 288 316 331 342 16 10 56 37 37 36 49 45 22 23 22 11 3 4 6 11 11 12 8 7 358 351 9 5 349 346 357 38 359 314 242 180 183 187 189 181 188 191 193 192 193 192 190 192 194 198 201 201 204 204 206 207 210 212 213 213 209 209 210 210 211 210 208 207
285 352 20 357 301 251 243 354 315 322 307 299 292 301 21 3 351 349 341 348 349 343 328 318 312 145 122 78 48 39 35 42 32 25 19 5 9 11 3 7 7 2 1 352 344 346 357 352 346 338 360 32 349 305 253 203 202 199 199 198 198 194 195 195 191 190 192 194 196 197 198 199 203 207 208 210 210 211 211 210 209 208 208 210 210 209 209
22 45 71 302 240 264 315 302 306 303 298 343 354 12 15 350 339 342 336 343 342 330 331 331 330 206 180 92 61 39 27 30 24 14 20 4 6 12 6 360 358 5 354 348 337 327 332 351 343 331 330 18 23 310 297 287 236 208 193 198 206 203 202 196 194 192 191 193 194 195 197 198 202 206 208 208 209 209 211 213 212 211 212 211 209 210 209
189 199 172 232 314 315 297 302 55 43 42 338 12 313 262 323 318 345 330 336 342 339 340 341 335 332 183 47 55 42 23 14 18 22 15 3 360 359 0 2 4 355 343 342 333 323 328 351 356 336 332 347 19 331 289 267 254 235 221 229 221 207 202 198 197 194 193 193 193 195 196 199 203 205 205 207 209 207 212 214 211 210 210 209 209 207 208
161 213 278 313 347 266 313 54 5 11 351 311 303 236 264 357 343 343 339 341 341 339 342 345 337 317 62 10 2 24 10 7 2 9 12 359 355 356 352 348 355 2 351 340 340 337 333 343 349 324 317 324 328 320 291 279 261 235 222 227 225 222 215 202 197 195 195 194 194 194 196 201 203 204 204 205 207 204 210 212 215 213 208 211 210 208 207
98 206 209 213 218 238 107 336 335 328 324 311 253 263 250 5 339 332 348 342 344 347 341 340 339 14 24 327 348 4 0 355 357 353 4 358 350 355 358 354 348 345 356 347 345 338 338 337 335 325 324 323 310 289 272 269 270 264 246 236 231 231 224 212 201 197 197 196 195 195 199 203 201 201 201 203 202 203 210 213 218 213 209 211 211 210 209
206 215 238 248 216 259 298 328 334 323 313 302 37 331 242 330 328 320 337 351 340 341 343 338 350 30 353 327 331 341 349 354 351 350 351 351 349 350 354 358 352 338 339 349 353 349 343 331 326 323 322 311 295 278 275 278 285 277 269 267 253 241 224 209 205 201 199 197 197 197 200 202 200 202 199 198 201 203 207 210 213 213 212 211 212 212 208
234 233 263 285 281 291 18 339 327 322 311 286 269 249 350 320 312 316 321 344 337 335 338 352 342 336 311 288 305 334 339 356 360 346 340 344 340 345 351 354 354 353 352 348 342 340 336 327 326 323 313 304 301 299 295 297 298 295 289 278 266 254 227 211 205 203 200 199 198 200 200 199 198 198 196 199 199 201 205 207 210 214 214 212 214 215 210
212 219 239 248 269 254 342 316 334 300 318 253 222 29 294 278 297 303 309 318 321 329 326 329 319 311 315 315 334 327 340 344 337 335 335 336 337 345 346 348 356 360 356 345 341 344 341 334 331 315 304 301 303 304 302 302 305 308 311 297 274 262 237 214 206 203 203 203 200 199 200 195 195 199 200 197 197 200 202 203 208 213 213 212 213 215 214
342 75 260 275 272 191 356 335 340 57 97 228 37 299 286 273 283 297 298 292 279 303 308 313 312 315 318 319 328 322 320 339 337 334 336 338 339 341 346 352 357 357 356 351 352 346 341 337 332 320 314 314 323 324 322 324 330 330 324 315 297 271 250 224 211 203 201 200 199 200 197 195 194 197 193 195 198 197 200 203 207 210 212 212 212 215 215
181 211 208 224 186 266 299 46 274 296 281 286 307 322 295 290 281 290 294 294 296 295 283 295 310 311 312 313 324 324 321 329 329 331 333 336 340 344 343 348 347 351 353 349 348 348 342 344 343 343 342 337 331 327 326 333 329 324 320 315 306 284 258 234 216 209 202 199 198 198 195 191 192 193 193 196 196 195 197 200 203 209 212 210 213 215 215
172 213 228 250 243 272 251 248 241 268 275 269 252 234 259 289 302 302 298 302 305 299 283 280 288 301 303 306 313 319 314 316 326 332 333 334 336 340 341 346 345 350 350 344 348 349 348 352 352 348 344 337 329 327 329 328 325 321 317 314 309 292 266 239 218 212 202 198 196 195 193 188 189 192 193 190 195 196 194 200 204 209 210 209 213 215 215
273 273 261 273 291 325 312 296 279 275 282 276 277 292 305 285 287 295 294 297 297 298 295 291 285 273 285 295 307 312 312 308 312 323 322 327 334 337 339 346 349 345 342 347 353 352 350 356 351 348 343 339 333 328 327 327 323 319 315 312 310 298 273 245 223 207 202 199 195 193 190 190 191 190 188 189 193 190 194 200 205 207 209 209 212 214 217
23 288 44 211 282 299 292 296 294 308 311 304 304 299 285 289 292 297 296 290 291 292 299 294 286 277 273 284 293 299 303 305 307 318 318 316 322 330 339 340 343 344 345 348 351 355 355 351 349 348 344 338 330 326 328 328 325 321 315 311 312 308 280 250 224 207 199 196 194 193 191 190 191 188 189 190 191 193 196 201 204 208 208 207 211 213 218
204 254 268 276 281 268 275 267 304 324 321 315 306 297 291 285 283 281 283 290 291 304 306 302 296 286 273 274 284 292 296 297 295 302 305 309 313 322 331 334 340 337 344 348 343 349 354 348 345 345 344 340 333 328 328 332 330 322 316 315 314 311 298 259 227 206 203 195 189 188 190 188 186 188 189 190 193 197 200 201 202 207 207 207 210 212 218
254 283 283 291 310 296 276 276 302 312 309 305 302 302 301 295 289 285 279 277 285 289 291 299 297 291 281 264 267 280 289 290 282 278 283 291 295 305 333 344 342 333 334 341 340 346 351 346 345 345 344 340 338 337 335 331 330 322 314 316 314 308 302 269 232 210 203 194 189 188 189 190 192 188 185 190 198 205 206 199 200 200 203 207 208 214 215
270 241 259 25 329 306 286 279 290 303 302 299 295 295 291 286 286 288 286 282 278 276 275 282 288 288 286 277 262 269 278 276 271 271 275 282 300 313 319 336 335 330 338 343 339 346 349 346 347 349 350 341 338 340 333 328 328 322 316 317 314 311 310 280 238 212 205 197 191 189 187 186 183 180 348 329 211 204 202 203 202 202 194 205 205 207 213
236 237 232 213 238 264 267 283 294 294 295 292 293 291 292 290 286 284 283 284 279 274 274 268 273 281 278 276 270 266 272 266 266 264 261 277 293 314 324 340 340 340 336 343 335 350 351 349 347 344 346 346 344 339 334 329 325 320 319 317 312 311 328 321 300 234 214 199 195 191 185 181 178 183 185 109 34 32 135 184 193 197 200 206 205 202 201
241 222 248 250 222 246 281 295 298 293 291 288 290 295 293 289 286 285 281 274 277 274 264 263 260 264 268 269 268 268 266 261 267 271 263 260 268 292 320 327 331 332 336 344 344 344 341 347 348 342 339 349 350 341 336 333 328 327 327 327 318 314 313 329 332 344 271 236 203 187 186 185 186 185 181 172 115 17 29 43 173 200 207 218 219 207 200
214 214 206 216 231 260 270 280 280 287 289 293 298 298 299 297 292 286 280 279 267 264 265 266 262 252 254 259 258 259 258 261 262 263 262 264 275 321 326 329 333 329 333 339 336 336 336 342 345 345 341 349 347 346 339 338 333 333 333 333 324 318 309 325 330 325 332 237 205 203 189 183 188 179 174 180 182 185 47 54 88 95 98 133 184 225 240
194 204 204 218 249 260 274 293 290 289 296 299 298 301 305 306 302 297 288 282 275 265 262 260 262 254 237 244 249 247 256 263 273 271 251 270 271 305 334 328 317 311 329 335 343 338 338 344 342 345 350 351 346 341 340 339 336 337 336 334 326 316 293 280 296 278 282 325 342 342 325 268 187 177 186 185 191 182 159 146 97 84 92 100 108 182 195
212 211 192 268 277 276 264 253 275 298 299 296 292 298 304 306 308 304 296 292 286 280 276 274 267 258 242 231 228 224 227 263 275 278 210 220 226 328 303 299 311 312 337 336 347 349 351 347 342 343 353 351 345 337 339 344 340 341 345 336 337 326 324 301 243 254 235 162 73 340 357 344 325 287 188 184 178 171 174 178 184 186 195 185 145 146 181
202 200 179 206 231 227 239 251 269 285 292 295 306 315 315 316 313 314 315 316 315 310 299 286 274 261 242 220 206 226 241 257 268 252 196 181 220 302 334 344 324 343 344 344 347 351 354 348 342 342 349 348 346 339 339 345 346 342 351 339 338 339 329 317 296 278 255 204 202 210 212 211 202 198 208 189 173 174 180 187 187 193 212 214 193 128 123
203 201 199 209 218 223 240 269 287 287 292 296 298 305 321 327 322 314 314 314 310 305 302 300 289 263 229 216 189 207 230 238 259 212 164 151 113 27 11 10 351 32 354 351 347 353 349 351 348 343 344 341 344 341 340 342 349 345 350 342 340 343 336 321 311 298 266 189 179 230 235 222 226 205 189 184 176 163 176 188 197 209 188 71 52 309 91
206 202 198 213 220 229 244 278 277 285 296 301 306 312 317 319 323 319 316 314 316 316 310 306 297 275 219 202 204 207 224 251 237 161 129 96 62 50 31 21 20 38 4 1 354 349 349 344 346 343 340 335 338 341 342 343 345 346 348 342 344 341 334 321 308 310 291 212 201 208 214 201 200 196 183 178 183 182 185 193 199 192 185 159 186 214 208
211 200 198 209 214 218 218 247 272 282 292 300 307 311 319 321 323 322 324 319 324 321 313 303 288 276 247 194 168 184 226 302 158 120 95 75 73 53 45 38 33 30 18 359 344 345 341 339 338 341 337 333 331 341 346 347 348 345 347 348 343 341 332 332 326 320 317 293 210 198 206 208 203 193 183 178 181 189 190 188 175 169 179 190 199 205 207
177 184 193 211 213 214 229 258 281 288 294 300 315 323 325 328 328 326 328 329 324 317 304 291 280 273 331 351 332 217 113 123 116 87 81 76 64 61 55 52 51 57 34 359 349 344 342 338 342 340 339 336 333 342 350 350 355 350 348 350 344 343 336 333 332 330 322 320 297 210 202 206 207 194 181 180 187 186 185 178 176 183 187 189 201 191 125
148 179 223 225 213 219 238 259 264 279 285 303 311 310 311 315 317 324 321 325 328 320 304 289 280 272 22 17 358 205 130 111 94 83 75 62 53 50 52 58 62 65 50 3 342 340 337 334 330 336 344 342 340 341 346 355 358 359 346 350 348 338 339 337 334 326 330 336 337 323 264 220 199 187 184 190 189 186 182 179 177 182 183 184 149 120 136
175 187 194 188 177 189 211 250 261 273 290 291 297 314 321 325 327 327 331 339 331 329 331 342 4 52 49 49 38 43 133 121 94 81 69 61 49 41 29 27 34 56 48 11 358 352 347 338 335 347 346 346 349 341 339 350 2 6 354 351 351 347 346 343 343 338 333 338 332 325 327 294 208 178 192 199 188 179 172 166 162 154 136 111 90 48 85
170 170 160 167 175 182 190 208 238 259 278 295 303 310 328 328 337 335 343 346 342 338 337 349 10 47 53 47 42 35 40 84 93 87 74 60 48 34 27 23 15 22 24 19 9 1 349 337 344 355 351 343 355 347 339 350 360 5 5 355 356 355 351 349 351 344 341 335 341 351 337 337 294 184 183 168 162 155 150 145 141 135 124 120 121 115 106
139 135 149 167 188 190 204 214 225 238 262 275 286 302 326 333 337 338 345 340 331 339 357 357 359 34 50 47 38 30 27 51 80 75 72 60 47 38 32 27 16 21 17 9 6 357 351 341 360 5 2 353 357 348 351 358 357 6 12 2 358 2 355 353 348 347 343 344 359 0 343 356 340 324 120 136 128 132 135 136 137 132 131 133 136 127 123
155 154 171 183 193 192 200 213 216 222 245 270 301 308 304 323 334 338 343 341 349 354 359 3 17 34 42 45 48 40 36 28 40 58 66 62 51 43 34 28 21 21 15 7 352 345 342 347 6 7 4 350 357 347 1 9 7 1 17 16 6 3 3 357 357 354 350 345 9 15 13 5 5 332 19 93 92 91 119 124 122 125 132 135 132 120 106
158 161 179 188 188 196 210 216 206 214 217 256 306 313 328 317 329 338 345 352 357 356 4 16 22 33 42 43 44 38 30 25 29 36 42 45 41 46 38 31 20 13 12 360 336 337 331 359 6 359 353 354 359 348 7 19 20 14 14 27 19 11 8 5 360 3 355 349 355 28 36 22 10 340 7 52 57 64 58 61 66 63 60 60 59 75 97
158 169 163 161 165 187 208 201 181 199 200 203 240 274 310 343 338 340 351 1 358 2 14 18 21 39 43 48 49 43 37 28 26 25 27 35 44 47 42 24 6 358 343 350 344 336 349 10 12 358 358 353 0 355 13 24 26 23 19 28 30 25 13 9 4 1 2 354 354 5 43 47 25 3 353 39 71 68 68 73 73 67 62 67 72 68 54
160 146 149 139 146 157 128 103 146 182 212 189 195 254 305 335 341 346 350 4 7 8 13 18 34 45 42 43 46 49 43 38 33 28 22 19 34 45 46 31 12 356 12 11 359 350 359 9 17 11 1 355 7 10 21 29 26 21 25 29 32 36 28 14 9 8 4 5 8 12 19 36 52 31 355 15 52 67 67 74 74 74 74 70 69 67 68
151 139 146 135 146 137 134 111 89 112 155 189 207 271 316 339 343 358 4 9 359 2 19 27 32 39 43 48 46 42 42 49 45 38 24 27 32 31 33 25 0 359 8 15 9 6 6 10 16 19 11 8 6 30 21 29 25 24 28 31 32 40 36 25 14 12 12 12 12 16 19 30 17 41 39 8 33 56 74 69 67 68 76 81 81 81 80
155 144 137 138 146 148 131 128 113 77 51 102 160 181 203 320 340 357 357 358 16 23 29 32 45 47 48 49 51 49 42 31 34 41 38 35 29 20 27 17 350 358 19 18 13 8 3 3 7 16 21 20 23 34 36 32 31 31 33 36 39 38 39 34 21 15 10 16 19 22 31 27 34 27 45 41 33 33 44 72 77 73 71 75 88 94 99
146 141 143 146 153 128 117 125 133 136 108 79 150 159 154 148 353 3 16 16 32 39 38 33 33 38 41 42 44 45 37 27 22 17 33 38 31 23 23 10 350 8 25 22 17 7 8 360 9 10 32 34 37 37 36 34 34 36 36 38 41 43 41 39 35 20 15 18 19 27 28 35 37 41 37 44 43 45 45 47 57 62 69 68 70 71 76
152 149 150 151 149 144 134 137 146 124 104 6 167 141 128 129 330 360 24 40 36 54 54 42 40 43 43 48 53 55 49 41 32 16 16 25 32 27 15 18 360 13 29 29 23 24 18 13 16 36 36 35 37 39 36 34 41 42 44 41 38 36 42 46 37 34 26 25 28 23 30 38 40 42 46 42 44 52 54 53 55 58 64 68 72 74 72
157 157 156 151 146 138 148 154 147 161 182 166 98 130 142 144 104 38 40 41 57 57 60 54 45 39 35 36 45 44 42 35 37 27 30 22 27 28 17 20 21 20 27 36 34 29 25 28 36 40 41 36 36 38 39 38 41 48 49 49 47 43 44 43 51 45 37 33 30 33 38 39 40 46 48 54 55 53 57 63 62 60 65 68 67 71 71
142 141 138 136 144 160 169 172 175 155 111 84 84 117 139 127 106 68 43 46 49 43 44 55 56 42 37 37 34 40 47 39 27 25 36 23 29 18 30 40 23 33 33 30 35 34 31 38 39 42 42 38 33 31 32 37 47 50 51 49 51 53 44 44 45 47 49 46 42 40 35 35 40 42 47 49 52 58 61 61 62 63 62 64 66 69 74
125 115 114 119 126 125 124 123 140 121 89 77 70 102 125 122 97 91 74 58 57 54 46 50 52 48 36 42 40 35 31 46 47 24 27 22 24 34 39 46 49 43 37 32 35 39 43 41 41 41 41 39 36 32 32 33 34 46 51 55 52 50 52 48 47 50 50 48 46 49 52 52 49 50 52 52 53 52 45 53 59 58 58 62 64 65 71
126 126 128 133 138 140 109 84 89 115 127 168 182 210 98 109 119 126 97 60 49 52 49 37 38 38 37 31 27 35 31 23 66 43 1 26 18 16 30 43 47 46 45 37 40 43 45 45 45 45 43 39 34 33 37 36 39 39 48 53 55 56 51 49 49 48 48 51 50 49 46 44 47 50 52 55 56 55 56 58 62 63 62 63 65 65 68
129 131 131 131 131 126 122 125 103 125 174 170 126 131 86 123 135 123 105 74 64 55 53 44 33 18 12 34 43 9 14 17 56 76 27 37 37 37 35 44 48 46 42 42 39 36 46 47 48 48 46 41 37 37 37 41 39 41 41 44 49 50 54 58 57 55 56 56 56 55 53 53 52 52 56 57 57 57 59 60 59 62 65 66 67 66 67
116 113 115 123 128 133 143 127 151 201 232 70 94 107 112 121 124 140 131 125 112 87 48 33 19 4 353 345 346 357 345 338 354 28 102 104 87 58 44 45 51 53 53 47 42 41 44 47 47 50 49 45 41 41 40 39 42 43 44 46 49 51 50 55 57 58 62 62 60 58 58 57 58 61 60 58 58 58 58 58 60 55 56 60 61 60 59
117 113 122 128 144 161 168 171 189 183 144 103 113 118 109 103 115 126 129 121 105 92 69 25 356 347 349 343 359 21 17 12 30 39 29 34 60 76 68 51 51 55 51 47 40 40 43 46 46 42 43 45 48 50 47 46 45 48 49 50 48 46 50 53 54 58 58 57 55 57 59 58 57 58 56 52 52 51 52 54 53 54 54 53 54 55 55
109 112 107 123 143 154 180 213 233 212 115 108 109 111 105 104 96 95 93 113 115 122 128 87 35 358 360 355 12 17 31 50 36 23 24 30 45 47 66 63 48 43 39 40 43 39 39 47 54 56 52 48 49 50 56 55 51 51 54 56 58 58 58 59 61 63 62 61 62 63 60 60 60 61 61 58 58 58 58 59 61 61 61 61 59 61 62